Location: Sungai Kamana Besar
(2.6333°N, 113.4333°E)
Time: 05:07:35
(UTC+00:00)

Envisat - Pass Details

Date: 29 May 2022
Orbit: 764 x 765 km, 98.2° (Epoch: 26 June)

Event Time Altitude Azimuth Distance (km) Brightness Sun altitude
Rises 21:29:27 0° 347° (NNW) 3,213 6.4 -11.6°
Reaches altitude 10° 21:32:15 10° 331° (NNW) 2,289 5.4 -10.9°
Maximum altitude 21:35:59 21° 283° (WNW) 1,651 4.3 -10.1°
Enters shadow 21:39:34 11° 236° (SW) 2,241 4.8 -9.3°
